Weather History for Sheridan, WY

Change the Weather History Date:

Tuesday, January 10, 2012

  Actual Average Record
Temperature  
Mean Temperature 36 °F 24 °F  
Max Temperature 48 °F 36 °F 60 °F (1953)
Min Temperature 24 °F 11 °F -21 °F (1949)
Degree Days  
Heating Degree Days 29 41  
Month to date heating degree days 307 419  
Since 1 July heating degree days 3144 3602  
Cooling Degree Days 0 0  
Month to date cooling degree days 0 0  
Year to date cooling degree days 0 0  
Moisture  
Dew Point 26 °F    
Average Humidity 67    
Maximum Humidity 89    
Minimum Humidity 45    
Precipitation  
Precipitation 0.06 in 0.02 in 0.38 in (1938)
Month to date precipitation 0.06 0.17  
Year to date precipitation 0.06 0.17  
Sea Level Pressure  
Sea Level Pressure 29.98 in    
Wind  
Wind Speed 12 mph (NW)    
Max Wind Speed 35 mph    
Max Gust Speed 43 mph    
Visibility 6 miles    
Events Rain , Snow    
T = Trace of Precipitation, MM = Missing Value Source: NWS Daily Summary

Daily Weather History Graph

Daily Weather History Graph

Search for Another Location

Airport:

Trip Planner

Search our weather history database for the weather conditions in past years. The results will help you decide how hot, cold, wet, or windy it might be!

Date:

Astronomy

Jan. 10, 2012 Rise Set
Actual Time 7:44 AM MST 4:46 PM MST
Civil Twilight 7:11 AM MST 5:19 PM MST
Nautical Twilight 6:34 AM MST 5:56 PM MST
Astronomical Twilight 5:59 AM MST 6:31 PM MST
Moon 6:47 PM MST (1/10) 8:18 AM MST (1/10)
Length of Visible Light 10h 08m
Length of Day
9h 02m
Full, 98% of the Moon is Illuminated
Jan 10
Full
Jan 16
Last Quarter
Jan 23
New
Jan 30
First Quarter
Feb 7
Full

Hourly Weather History & Observations

Time (MST) Temp. Windchill Dew Point Humidity Pressure Visibility Wind Dir Wind Speed Gust Speed Precip Events Conditions
12:53 AM 32.0 °F - 21.0 °F 64% 30.03 in 10.0 mi Calm Calm - N/A   Clear
1:53 AM 30.9 °F 25.2 °F 21.0 °F 67% 30.01 in 10.0 mi North 5.8 mph - N/A   Clear
2:53 AM 28.0 °F 22.8 °F 21.9 °F 78% 30.02 in 10.0 mi NNW 4.6 mph - N/A   Clear
3:53 AM 27.0 °F 23.0 °F 21.9 °F 81% 30.01 in 10.0 mi South 3.5 mph - N/A   Clear
4:53 AM 28.9 °F 21.9 °F 21.9 °F 75% 30.01 in 10.0 mi NE 6.9 mph - N/A   Clear
5:53 AM 27.0 °F - 19.9 °F 75% 30.00 in 10.0 mi Calm Calm - N/A   Clear
6:53 AM 28.4 °F - 21.2 °F 74% 29.88 in 10.0 mi Calm Calm - N/A   Clear
7:53 AM 26.1 °F 21.9 °F 19.9 °F 78% 29.97 in 10.0 mi SW 3.5 mph - N/A   Clear
8:53 AM 33.1 °F 27.7 °F 25.0 °F 72% 29.92 in 10.0 mi WSW 5.8 mph - N/A   Clear
9:53 AM 44.1 °F - 27.0 °F 51% 29.87 in 10.0 mi Calm Calm - N/A   Clear
10:53 AM 46.0 °F 44.8 °F 28.9 °F 51% 29.83 in 10.0 mi Variable 3.5 mph - N/A   Clear
11:53 AM 48.2 °F - 28.4 °F 46% 29.74 in 10.0 mi NNE 3.5 mph - N/A   Clear
12:53 PM 43.0 °F 38.8 °F 30.9 °F 62% 29.76 in 10.0 mi NNW 6.9 mph - N/A   Overcast
1:53 PM 41.0 °F 33.5 °F 28.0 °F 60% 29.77 in 10.0 mi North 13.8 mph - N/A   Overcast
2:53 PM 43.0 °F 40.3 °F 27.0 °F 53% 29.78 in 10.0 mi North 4.6 mph - N/A   Overcast
3:53 PM 46.0 °F 37.0 °F 27.0 °F 47% 29.82 in 10.0 mi NNW 27.6 mph 36.8 mph N/A   Overcast
4:53 PM 37.9 °F 26.8 °F 32.0 °F 79% 29.93 in 10.0 mi NNW 24.2 mph - 0.00 in Rain Light Rain
5:07 PM 37.4 °F 27.8 °F 32.0 °F 81% 29.87 in 10.0 mi NNW 17.3 mph - 0.00 in Rain Light Rain
5:26 PM 33.8 °F 20.5 °F 30.2 °F 87% 29.89 in 2.5 mi NNW 27.6 mph 38.0 mph 0.01 in Snow Light Snow
5:28 PM 33.8 °F 20.5 °F 30.2 °F 87% 29.89 in 1.5 mi NNW 27.6 mph 38.0 mph 0.01 in Snow Light Snow
5:48 PM 33.8 °F 22.5 °F 30.2 °F 87% 29.89 in 2.0 mi WNW 19.6 mph - 0.03 in Snow Light Snow
5:53 PM 33.1 °F 20.9 °F 30.9 °F 92% 29.99 in 3.0 mi NW 21.9 mph 27.6 mph 0.03 in Snow Light Snow
6:05 PM 33.8 °F 23.5 °F 30.2 °F 87% 29.90 in 5.0 mi WNW 16.1 mph - 0.01 in Snow Light Snow
6:33 PM 33.8 °F 22.5 °F 30.2 °F 87% 29.91 in 6.0 mi WNW 19.6 mph 26.5 mph 0.01 in Snow Light Snow
6:41 PM 33.8 °F 22.2 °F 30.2 °F 87% 29.91 in 2.5 mi NW 20.7 mph 28.8 mph 0.01 in Snow Light Snow
6:44 PM 33.8 °F 22.2 °F 30.2 °F 87% 29.91 in 1.8 mi NW 20.7 mph 28.8 mph 0.01 in Snow Light Snow
6:51 PM 33.8 °F 21.9 °F 30.2 °F 87% 29.91 in 3.0 mi WNW 21.9 mph - 0.02 in Snow Light Snow
6:53 PM 33.1 °F 21.5 °F 30.9 °F 92% 30.01 in 5.0 mi WNW 19.6 mph - 0.02 in Snow Light Snow
7:05 PM 33.8 °F 20.5 °F 30.2 °F 87% 29.93 in 9.0 mi NW 27.6 mph 34.5 mph 0.00 in   Overcast
7:14 PM 33.8 °F 21.9 °F 30.2 °F 87% 29.94 in 10.0 mi NNW 21.9 mph 34.5 mph 0.00 in   Overcast
7:53 PM 30.9 °F 17.2 °F 27.0 °F 85% 30.11 in 10.0 mi WNW 25.3 mph 32.2 mph 0.00 in   Overcast
8:13 PM 28.4 °F 14.4 °F 24.8 °F 86% 30.02 in 1.8 mi NW 23.0 mph 33.4 mph 0.00 in Snow Light Snow
8:41 PM 28.4 °F 13.0 °F 24.8 °F 86% 30.04 in 0.8 mi NW 28.8 mph 35.7 mph 0.00 in Snow Light Snow
8:53 PM 28.0 °F 13.0 °F 25.0 °F 88% 30.14 in 1.2 mi NW 26.5 mph 32.2 mph 0.01 in Snow Light Snow
9:04 PM 26.6 °F 12.0 °F 24.8 °F 93% 30.05 in 0.8 mi NW 23.0 mph 32.2 mph 0.00 in Snow Light Snow
9:06 PM 26.6 °F 11.7 °F 24.8 °F 93% 30.06 in 1.0 mi NW 24.2 mph - 0.00 in Snow Light Snow
9:16 PM 26.6 °F 12.4 °F 24.8 °F 93% 30.07 in 2.5 mi NW 21.9 mph 29.9 mph 0.00 in Snow Light Snow
9:38 PM 26.6 °F 13.1 °F 23.0 °F 86% 30.08 in 5.0 mi NW 19.6 mph 28.8 mph 0.00 in Snow Light Snow
9:53 PM 27.0 °F 14.3 °F 23.0 °F 85% 30.16 in 4.0 mi WNW 17.3 mph - 0.00 in Snow Light Snow
10:19 PM 26.6 °F 12.4 °F 23.0 °F 86% 30.09 in 2.5 mi NW 21.9 mph 31.1 mph 0.00 in Snow Light Snow
10:41 PM 24.8 °F 10.3 °F 21.2 °F 86% 30.10 in 4.0 mi NW 20.7 mph - 0.00 in Snow Light Snow
10:53 PM 25.0 °F 9.9 °F 21.0 °F 85% 30.19 in 9.0 mi NW 23.0 mph - 0.00 in Snow Light Snow
11:15 PM 24.8 °F 10.7 °F 21.2 °F 86% 30.12 in 3.0 mi NW 19.6 mph 28.8 mph 0.00 in Snow Light Snow
11:29 PM 24.8 °F 8.7 °F 19.4 °F 80% 30.13 in 6.0 mi NW 26.5 mph 31.1 mph 0.00 in Snow Light Snow
11:53 PM 24.1 °F 7.1 °F 19.9 °F 84% 30.22 in 6.0 mi NW 28.8 mph 36.8 mph 0.00 in Snow Light Snow